Вернуться в каталог

BREEZE-M DEB

АктивенHEO
NORAD 32496·DEBRIS·🇷🇺 Russia

Запущен Feb 28, 2006 с Baikonur Cosmodrome

Loading…

Ближайшие Пролёты (ближайшие 24 часа)

TLE

СвежийSource: Space-Track

Эпоха: Sep 14, 2026, 04:31 UTC

1 32496U 06006AK  26257.18826873  .00003352  00000-0  29036-2 0  9996
2 32496  51.6928 293.7520 4893977 186.0023 164.8909  5.62781433 47975

Отслеживайте BREEZE-M DEB в реальном времени с AllMySat

Download on the App Store